�N����,����,�~����,�C��,���x,�C��,����,���ϕ���,�ő�u�ԕ���,�ő厞����,���˗�,�I�_���x,�n�����x,�ő啗���N��,DTYPE
"19/08/25","00:10",0.0,22.8,91.6,1005.0,321.2,1.6,2.5,327.2,0.00,21.4,25.8,"00:01:04",1
"19/08/25","00:20",0.0,22.7,91.8,1005.0,286.7,0.8,1.8,323.2,0.00,21.3,25.9,"00:12:32",1
"19/08/25","00:30",0.0,22.6,92.1,1005.0,280.2,0.7,1.0,258.0,0.00,21.3,25.8,"00:20:32",1
"19/08/25","00:40",0.0,22.7,92.5,1005.0,286.9,0.6,1.0,319.6,0.00,21.5,25.7,"00:34:24",1
"19/08/25","00:50",0.0,22.5,92.3,1004.8,320.7,1.1,1.6,333.5,0.00,21.2,25.7,"00:46:16",1
"19/08/25","01:00",0.0,22.5,92.5,1004.8,297.6,1.0,1.7,300.1,0.00,21.3,25.7,"00:56:16",1
"19/08/25","01:10",0.0,22.4,92.7,1005.0,289.0,0.8,1.4,303.8,0.00,21.2,25.7,"01:07:12",1
"19/08/25","01:20",0.0,22.3,92.6,1004.3,284.3,0.7,1.1,295.7,0.00,21.1,25.7,"01:19:52",1
"19/08/25","01:30",0.0,22.3,92.8,1004.5,293.8,1.1,1.6,320.9,0.00,21.1,25.6,"01:29:28",1
"19/08/25","01:40",0.0,22.3,92.8,1004.8,302.9,1.1,1.9,327.4,0.00,21.1,25.6,"01:31:44",1
"19/08/25","01:50",0.0,22.4,93.0,1004.8,324.3,1.2,1.6,340.1,0.00,21.3,25.7,"01:42:16",1
"19/08/25","02:00",0.0,22.4,93.2,1004.8,296.5,1.0,1.3,316.8,0.00,21.3,25.5,"01:56:40",1
"19/08/25","02:10",0.0,22.3,93.1,1005.2,299.4,1.0,1.7,330.1,0.00,21.2,25.6,"02:08:48",1
"19/08/25","02:20",0.0,22.3,93.2,1005.0,305.5,1.0,1.6,326.8,0.00,21.2,25.7,"02:19:28",1
"19/08/25","02:30",0.0,22.4,93.4,1005.0,302.0,1.1,1.6,319.4,0.00,21.3,25.6,"02:25:28",1
"19/08/25","02:40",0.0,22.3,93.2,1004.8,298.8,1.0,1.8,317.9,0.00,21.2,25.4,"02:35:52",1
"19/08/25","02:50",0.0,22.2,93.2,1005.2,293.7,0.7,1.1,290.6,0.00,21.1,25.6,"02:49:12",1
"19/08/25","03:00",0.0,22.2,93.4,1005.7,287.6,0.8,1.1,291.8,0.00,21.1,25.4,"02:54:48",1
"19/08/25","03:10",0.0,22.5,93.7,1005.2,329.6,1.2,1.8,334.9,0.00,21.5,25.4,"03:05:22",1
"19/08/25","03:20",0.0,22.4,93.6,1005.5,318.4,1.3,1.9,336.2,0.00,21.4,25.6,"03:12:40",1
"19/08/25","03:30",0.0,22.2,93.2,1005.2,283.7,1.0,1.7,305.9,0.00,21.1,25.3,"03:24:08",1
"19/08/25","03:40",0.0,22.1,93.3,1005.2,308.6,1.1,1.6,306.7,0.00,21.0,25.5,"03:30:56",1
"19/08/25","03:50",0.0,22.2,93.5,1005.2,291.2,1.1,1.8,336.2,0.00,21.1,25.5,"03:46:56",1
"19/08/25","04:00",0.0,22.3,93.6,1005.7,335.4,1.3,2.1,333.9,0.00,21.3,25.3,"03:55:20",1
"19/08/25","04:10",0.0,22.3,93.6,1005.5,325.8,1.2,1.9,336.2,0.00,21.3,25.2,"04:06:08",1
"19/08/25","04:20",0.0,22.3,93.6,1005.7,303.0,1.0,1.6,317.9,0.00,21.3,25.3,"04:14:00",1
"19/08/25","04:30",0.0,22.2,93.4,1005.7,281.9,0.8,1.2,277.7,0.00,21.1,25.2,"04:26:40",1
"19/08/25","04:40",0.0,22.0,93.4,1005.2,272.9,1.1,1.9,321.5,0.00,20.9,25.4,"04:31:12",1
"19/08/25","04:50",0.0,22.1,93.6,1005.5,328.1,1.2,1.8,347.0,0.00,21.1,25.4,"04:43:44",1
"19/08/25","05:00",0.0,22.1,93.6,1005.5,324.6,1.6,2.5,331.4,0.00,21.1,25.2,"04:55:28",1
"19/08/25","05:10",0.0,22.1,93.6,1005.5,276.2,0.8,1.3,307.5,0.00,21.1,25.4,"05:06:00",1
"19/08/25","05:20",0.0,22.3,94.0,1006.0,287.8,0.8,1.7,321.4,0.00,21.3,25.2,"05:19:36",1
"19/08/25","05:30",0.0,22.2,93.7,1005.7,323.5,1.1,1.8,321.4,0.00,21.2,25.1,"05:21:12",1
"19/08/25","05:40",0.0,22.2,93.6,1006.0,330.7,1.3,2.2,331.4,0.00,21.2,25.1,"05:35:20",1
"19/08/25","05:50",0.0,22.1,93.8,1005.7,321.2,1.5,1.8,346.5,0.00,21.1,25.2,"05:40:32",1
"19/08/25","06:00",0.0,22.0,94.0,1006.2,303.4,1.1,1.6,321.3,0.00,21.0,25.2,"05:57:52",1
"19/08/25","06:10",0.0,22.0,94.0,1006.0,298.6,1.1,1.4,328.6,0.00,21.0,25.2,"06:06:40",1
"19/08/25","06:20",0.0,22.0,94.0,1006.4,299.1,1.1,1.9,319.4,0.00,21.0,25.2,"06:12:32",1
"19/08/25","06:30",0.0,21.9,94.0,1006.4,302.7,1.1,1.8,315.0,0.00,20.9,25.0,"06:24:48",1
"19/08/25","06:40",0.0,21.9,94.2,1006.2,292.3,1.0,1.1,287.5,0.01,21.0,25.2,"06:36:24",1
"19/08/25","06:50",0.0,22.1,94.2,1006.4,306.5,1.0,1.3,314.8,0.02,21.2,25.0,"06:44:40",1
"19/08/25","07:00",0.0,22.4,93.9,1006.4,302.0,0.6,1.0,283.2,0.03,21.4,25.4,"06:50:32",1
"19/08/25","07:10",0.0,22.6,93.3,1006.2,336.2,0.7,1.3,328.8,0.03,21.5,25.2,"07:07:36",1
"19/08/25","07:20",0.0,22.7,92.9,1006.7,329.9,1.0,1.6,342.3,0.03,21.5,25.2,"07:15:28",1
"19/08/25","07:30",0.0,22.8,93.6,1006.7,324.9,0.8,1.3,333.6,0.06,21.8,24.8,"07:20:56",1
"19/08/25","07:40",0.0,23.4,92.7,1006.7,321.2,0.7,1.2,339.0,0.09,22.2,25.0,"07:32:00",1
"19/08/25","07:50",0.0,23.8,90.0,1006.4,340.1,0.6,1.3,340.2,0.11,22.1,25.1,"07:42:56",1
"19/08/25","08:00",0.0,24.4,86.4,1006.4,359.8,0.6,1.2,350.6,0.13,22.0,25.1,"07:52:16",1
"19/08/25","08:10",0.0,24.8,82.6,1006.4,51.7,0.5,1.2,127.7,0.16,21.7,25.4,"08:03:12",1
"19/08/25","08:20",0.0,24.9,81.5,1006.2,54.7,0.3,1.3,352.8,0.18,21.6,25.3,"08:13:28",1
"19/08/25","08:30",0.0,24.9,80.7,1006.2,192.2,0.6,1.1,231.0,0.21,21.4,25.3,"08:26:16",1
"19/08/25","08:40",0.0,25.6,79.6,1006.0,33.1,0.5,1.2,342.0,0.23,21.9,25.3,"08:33:44",1
"19/08/25","08:50",0.0,26.0,80.3,1005.5,179.2,0.6,1.4,126.2,0.25,22.4,25.5,"08:46:48",1
"19/08/25","09:00",0.0,26.0,77.8,1005.7,204.9,0.6,1.9,47.6,0.27,21.9,25.4,"08:58:56",1
"19/08/25","09:10",0.0,26.5,77.1,1005.7,92.8,0.7,2.0,121.1,0.31,22.2,25.7,"09:06:08",1
"19/08/25","09:20",0.0,26.3,76.5,1006.2,149.5,1.1,3.5,218.2,0.34,21.9,25.8,"09:16:32",1
"19/08/25","09:30",0.0,26.8,75.7,1006.2,174.4,1.1,2.2,198.3,0.36,22.2,25.9,"09:20:48",1
"19/08/25","09:40",0.0,26.7,74.3,1006.4,157.5,0.8,2.4,199.9,0.33,21.8,25.9,"09:37:20",1
"19/08/25","09:50",0.0,27.2,72.2,1006.4,146.3,1.0,2.6,118.8,0.38,21.8,26.1,"09:41:36",1
"19/08/25","10:00",0.0,27.2,70.6,1006.9,76.8,1.1,2.5,177.7,0.34,21.4,26.3,"09:54:08",1
"19/08/25","10:10",0.0,26.7,72.9,1006.9,233.9,0.8,3.9,214.8,0.15,21.5,26.5,"10:03:04",1
"19/08/25","10:20",0.0,27.1,72.1,1006.4,154.1,1.0,1.8,133.5,0.23,21.7,26.4,"10:19:20",1
"19/08/25","10:30",0.0,27.7,69.4,1006.4,163.3,1.3,3.6,207.4,0.39,21.6,26.7,"10:24:08",1
"19/08/25","10:40",0.0,28.4,66.3,1006.9,113.5,1.0,2.5,114.5,0.50,21.5,26.9,"10:37:04",1
"19/08/25","10:50",0.0,28.5,63.1,1006.9,131.0,0.7,1.7,125.2,0.54,20.8,26.8,"10:41:52",1
"19/08/25","11:00",0.0,29.2,64.6,1007.1,146.7,1.1,2.8,192.6,0.53,21.9,27.0,"10:54:40",1
"19/08/25","11:10",0.0,28.8,60.3,1007.1,26.6,1.6,2.7,49.0,0.51,20.4,27.2,"11:03:20",1
"19/08/25","11:20",0.0,29.0,61.0,1007.4,183.1,0.6,2.0,201.4,0.52,20.8,27.5,"11:10:02",1
"19/08/25","11:30",0.0,29.1,63.6,1007.1,192.8,1.0,2.4,215.8,0.36,21.5,27.8,"11:22:48",1
"19/08/25","11:40",0.0,27.9,63.9,1006.7,153.1,1.0,2.1,118.6,0.27,20.5,27.9,"11:31:28",1
"19/08/25","11:50",0.0,29.0,64.6,1006.7,165.3,0.7,2.5,226.4,0.30,21.7,27.8,"11:45:36",1
"19/08/25","12:00",0.0,29.9,61.0,1006.9,62.7,1.0,2.2,70.0,0.58,21.6,28.0,"11:52:16",1
"19/08/25","12:10",0.0,29.4,57.4,1006.9,116.2,1.2,2.1,122.7,0.61,20.1,28.2,"12:03:12",1
"19/08/25","12:20",0.0,30.2,54.3,1007.1,305.5,0.7,2.9,357.8,0.60,20.0,28.1,"12:18:16",1
"19/08/25","12:30",0.0,29.9,55.3,1006.9,249.1,1.1,2.7,322.0,0.57,20.0,28.7,"12:27:12",1
"19/08/25","12:40",0.0,29.9,55.4,1006.7,278.2,1.2,2.9,231.8,0.56,20.0,28.7,"12:34:00",1
"19/08/25","12:50",0.0,29.8,54.1,1006.2,265.0,1.1,2.4,208.8,0.40,19.6,28.6,"12:44:32",1
"19/08/25","13:00",0.0,30.2,53.7,1006.4,260.0,1.3,3.3,222.5,0.58,19.8,28.7,"12:55:04",1
"19/08/25","13:10",0.0,30.6,53.1,1006.2,278.2,1.2,3.2,280.6,0.60,20.0,29.1,"13:07:52",1
"19/08/25","13:20",0.0,29.9,55.2,1006.0,275.2,1.3,3.9,345.3,0.38,20.0,29.1,"13:11:52",1
"19/08/25","13:30",0.0,29.9,59.2,1005.5,320.2,1.1,2.8,346.5,0.28,21.1,29.2,"13:24:24",1
"19/08/25","13:40",0.0,29.4,57.2,1005.0,213.5,1.1,2.7,220.1,0.20,20.1,29.0,"13:38:40",1
"19/08/25","13:50",0.0,29.4,56.3,1005.5,232.0,1.1,2.6,205.7,0.21,19.8,29.0,"13:45:36",1
"19/08/25","14:00",0.0,30.8,53.9,1005.5,256.8,1.0,2.4,323.3,0.57,20.4,29.2,"13:58:24",1
"19/08/25","14:10",0.0,31.1,52.0,1005.7,245.3,1.0,3.5,226.2,0.56,20.1,29.4,"14:07:52",1
"19/08/25","14:20",0.0,30.6,50.9,1005.5,226.7,1.7,4.0,222.7,0.50,19.3,29.5,"14:18:08",1
"19/08/25","14:30",0.0,30.4,55.1,1006.0,314.2,1.7,6.8,355.6,0.52,20.4,29.4,"14:28:24",1
"19/08/25","14:40",0.0,29.0,60.1,1005.5,2.3,2.0,3.7,43.2,0.18,20.5,29.4,"14:39:04",1
"19/08/25","14:50",0.0,30.7,60.0,1004.5,15.4,1.3,3.6,27.9,0.36,22.1,29.1,"14:47:36",1
"19/08/25","15:00",0.0,30.1,55.3,1005.2,357.7,1.0,3.2,355.9,0.32,20.2,29.3,"14:58:56",1
"19/08/25","15:10",0.0,31.2,53.1,1005.2,19.3,1.0,2.1,351.0,0.44,20.6,29.3,"15:06:00",1
"19/08/25","15:20",0.0,31.0,52.4,1005.7,40.9,1.0,2.6,347.8,0.46,20.2,29.2,"15:12:08",1
"19/08/25","15:30",0.0,31.4,53.3,1006.2,279.3,0.7,2.4,231.6,0.46,20.8,29.3,"15:26:32",1
"19/08/25","15:40",0.0,29.9,57.6,1006.2,200.9,0.8,3.7,217.8,0.21,20.7,29.3,"15:33:36",1
"19/08/25","15:50",0.0,29.6,61.2,1005.5,349.8,1.0,2.5,325.7,0.13,21.4,29.3,"15:44:16",1
"19/08/25","16:00",0.0,29.3,59.1,1005.5,348.4,1.7,3.5,338.3,0.06,20.5,29.2,"15:59:20",1
"19/08/25","16:10",0.0,29.2,60.7,1005.0,341.6,1.6,3.5,321.8,0.07,20.9,29.2,"16:00:32",1
"19/08/25","16:20",0.0,29.1,63.6,1004.5,334.7,0.8,2.0,352.7,0.06,21.5,29.2,"16:12:24",1
"19/08/25","16:30",0.0,28.6,63.8,1004.1,333.7,1.2,3.3,342.7,0.04,21.1,29.0,"16:29:28",1
"19/08/25","16:40",0.0,28.4,62.8,1003.8,323.9,1.5,2.4,348.7,0.01,20.7,28.7,"16:31:12",1
"19/08/25","16:50",0.0,28.3,62.5,1003.6,298.9,1.0,2.2,325.5,0.01,20.5,28.9,"16:41:04",1
"19/08/25","17:00",0.0,28.2,63.5,1003.6,291.6,1.1,2.7,254.9,0.01,20.7,28.7,"16:55:20",1
"19/08/25","17:10",0.2,27.5,66.1,1003.6,254.4,1.8,4.7,232.1,0.00,20.6,28.4,"17:00:02",1
"19/08/25","17:20",0.0,25.8,74.2,1003.8,286.6,1.3,3.6,226.8,0.02,20.9,28.2,"17:10:16",1
"19/08/25","17:30",0.2,24.9,79.3,1004.3,323.3,0.8,2.2,357.5,0.02,21.1,28.4,"17:28:48",1
"19/08/25","17:40",0.0,24.7,80.8,1004.3,322.3,1.2,2.9,340.8,0.02,21.2,28.2,"17:35:20",1
"19/08/25","17:50",0.0,25.0,80.8,1004.3,297.0,1.2,2.9,336.5,0.03,21.5,28.0,"17:47:20",1
"19/08/25","18:00",0.0,25.0,81.0,1004.3,313.8,1.0,2.1,337.6,0.01,21.6,27.9,"17:57:44",1
"19/08/25","18:10",0.0,24.9,80.6,1005.0,328.4,1.8,4.0,348.7,0.00,21.4,27.8,"18:08:32",1
"19/08/25","18:20",0.0,25.0,79.0,1004.3,341.6,1.5,2.7,327.8,0.00,21.1,27.7,"18:12:00",1
"19/08/25","18:30",0.0,25.5,77.3,1004.8,323.2,1.3,3.3,306.3,0.00,21.3,27.9,"18:23:52",1
"19/08/25","18:40",0.0,25.4,78.0,1005.0,289.3,1.2,2.2,236.4,0.00,21.3,27.5,"18:32:24",1
"19/08/25","18:50",0.0,25.4,79.8,1005.5,258.6,0.8,1.3,241.4,0.00,21.7,27.5,"18:46:24",1
"19/08/25","19:00",0.0,24.8,79.0,1005.5,295.6,1.0,2.1,341.0,0.00,21.0,27.3,"18:58:48",1
"19/08/25","19:10",0.0,25.4,77.5,1005.5,315.0,1.0,1.6,19.2,0.00,21.2,27.5,"19:00:08",1
"19/08/25","19:20",0.0,25.0,79.1,1005.5,282.4,0.8,1.8,261.4,0.00,21.2,27.5,"19:14:48",1
"19/08/25","19:30",0.0,24.8,80.9,1005.7,279.4,0.8,1.3,302.4,0.00,21.3,27.0,"19:22:48",1
"19/08/25","19:40",0.0,24.6,81.6,1006.0,284.6,0.8,1.4,264.4,0.00,21.3,27.2,"19:37:28",1
"19/08/25","19:50",0.0,24.4,81.8,1006.4,293.6,0.7,1.3,315.1,0.00,21.1,27.1,"19:47:04",1
"19/08/25","20:00",0.0,24.4,82.2,1006.4,277.6,1.0,1.8,267.4,0.00,21.2,27.2,"19:50:40",1
"19/08/25","20:10",0.0,24.3,82.5,1006.9,287.7,1.0,1.8,328.6,0.00,21.2,26.9,"20:05:36",1
"19/08/25","20:20",0.0,24.3,83.9,1006.9,311.3,0.8,1.4,324.6,0.00,21.4,26.9,"20:12:48",1
"19/08/25","20:30",0.0,24.1,84.8,1007.1,294.4,0.6,1.1,326.8,0.00,21.4,26.9,"20:27:44",1
"19/08/25","20:40",0.0,23.7,85.8,1006.9,318.6,1.0,1.7,333.9,0.00,21.2,26.8,"20:36:00",1
"19/08/25","20:50",0.0,23.4,87.3,1007.1,294.5,0.8,1.3,345.2,0.00,21.2,26.8,"20:45:04",1
"19/08/25","21:00",0.0,23.4,88.3,1007.1,315.1,1.0,1.3,325.2,0.00,21.4,26.6,"20:52:08",1
"19/08/25","21:10",0.0,23.3,88.8,1007.1,320.8,1.0,1.3,335.0,0.00,21.4,26.7,"21:04:00",1
"19/08/25","21:20",0.0,23.2,88.9,1007.6,317.1,1.1,1.4,337.3,0.00,21.3,26.5,"21:18:56",1
"19/08/25","21:30",0.0,23.1,89.7,1007.8,305.8,1.0,1.4,326.3,0.00,21.4,26.6,"21:20:16",1
"19/08/25","21:40",0.0,23.0,90.0,1007.6,299.5,1.0,1.6,344.2,0.00,21.3,26.4,"21:38:16",1
"19/08/25","21:50",0.0,23.1,90.3,1007.8,307.6,0.8,1.4,338.8,0.00,21.5,26.5,"21:41:04",1
"19/08/25","22:00",0.0,23.1,90.6,1007.4,303.9,0.8,1.2,322.3,0.00,21.5,26.6,"21:50:08",1
"19/08/25","22:10",0.0,22.9,90.3,1007.4,306.7,1.0,1.2,309.6,0.00,21.3,26.5,"22:07:12",1
"19/08/25","22:20",0.0,22.8,90.7,1007.6,301.6,1.0,1.4,317.0,0.00,21.2,26.3,"22:12:56",1
"19/08/25","22:30",0.0,22.7,90.8,1007.6,309.0,0.8,1.2,309.3,0.00,21.2,26.2,"22:25:28",1
"19/08/25","22:40",0.0,22.7,90.8,1007.1,310.0,0.6,1.2,320.5,0.00,21.2,26.2,"22:30:02",1
"19/08/25","22:50",0.0,22.5,91.3,1007.4,314.7,1.1,1.4,325.2,0.00,21.1,26.2,"22:44:00",1
"19/08/25","23:00",0.0,22.3,91.4,1007.1,323.0,1.0,1.7,320.1,0.00,20.9,26.1,"22:50:16",1
"19/08/25","23:10",0.0,22.0,91.4,1007.6,318.2,1.1,1.6,315.6,0.00,20.6,25.8,"23:06:40",1
"19/08/25","23:20",0.0,21.8,91.6,1007.6,303.8,1.0,1.6,312.8,0.00,20.4,25.9,"23:19:04",1
"19/08/25","23:30",0.0,21.6,92.2,1007.8,304.7,0.8,1.4,321.6,0.00,20.3,25.9,"23:27:12",1
"19/08/25","23:40",0.0,21.5,92.4,1007.4,306.3,0.8,1.4,311.8,0.00,20.3,25.7,"23:32:16",1
"19/08/25","23:50",0.0,21.3,92.3,1007.4,320.2,0.8,1.4,330.3,0.00,20.0,25.7,"23:45:44",1
"19/08/25","24:00",0.0,21.2,92.7,1007.8,306.3,1.0,1.4,341.0,0.00,20.0,25.6,"23:58:56",1
